20050114,000018,866197,32.244997,-123.489711,27.1,14.128,32.932,39.830,556.43,0.0,0.859,13.812,13.783, NaN,24.563,   NaN,12.55,1021.67,85.79,12.87,35.0,41.8,4.0,3.8,7.2,14.0,3.9,3.7,NaN, NaN,12.5,67.1,74.3,1105660818,1105660818,1,0.5,000017,000018,333.2,32.244862,-123.489690,-0.26,NaN,NaN,14.131, NaN,NaN,NaN, NaN, NaN
20050114,000047,866225,32.245017,-123.489726,27.1,14.129,32.930,39.829,551.05,0.0,0.859,13.811,13.781, NaN,24.561,   NaN,12.53,1021.65,85.89,12.85,32.1,38.3,4.5,4.1,4.3,10.3,4.4,4.0,NaN, NaN,12.7,316.3,18.6,1105660847,1105660847,1,0.5,000047,000047,334.6,32.244885,-123.489710,-0.29,NaN,NaN,14.132, NaN,NaN,NaN, NaN, NaN
20050114,000118,866256,32.245073,-123.489751,27.1,14.128,32.930,39.828,548.79,0.0,0.878,13.807,13.779, NaN,24.562,   NaN,12.52,1021.65,85.88,12.83,28.8,33.4,5.0,4.7,5.3,9.7,4.9,4.6,NaN, NaN,12.7,278.3,316.0,1105660878,1105660878,1,0.3,000077,000078,338.2,32.244938,-123.489748,-0.32,NaN,NaN,14.131, NaN,NaN,NaN, NaN, NaN
20050114,000148,866286,32.245147,-123.489766,27.0,14.128,32.931,39.829,546.07,0.0,0.859,13.805,13.779, NaN,24.562,   NaN,12.53,1021.67,85.87,12.84,25.2,28.3,5.1,5.3,5.8,8.9,4.9,5.1,NaN, NaN,12.5,339.1,334.3,1105660908,1105660908,1,0.4,000108,000108,341.9,32.245013,-123.489773,-0.25,NaN,NaN,14.131, NaN,NaN,NaN, NaN, NaN
20050114,000218,866316,32.245180,-123.489765,26.9,14.129,32.927,39.826,556.38,0.0,0.859,13.804,13.779, NaN,24.559,   NaN,12.50,1021.65,85.79,12.83,22.5,25.9,5.0,5.3,5.4,8.9,4.7,5.0,NaN, NaN,12.6,329.3,96.6,1105660938,1105660938,1,0.0,000137,000138,341.7,32.245038,-123.489771,-0.37,NaN,NaN,14.132, NaN,NaN,NaN, NaN, NaN
20050114,000249,866347,32.245163,-123.489741,27.2,14.129,32.928,39.827,550.16,0.0,0.859,13.804,13.779, NaN,24.560,   NaN,12.48,1021.68,85.67,12.81,22.6,25.0,4.6,4.9,5.8,8.2,4.5,4.7,NaN, NaN,14.3,329.3,78.2,1105660968,1105660968,1,0.6,000168,000168,340.5,32.245040,-123.489755,-0.29,NaN,NaN,14.132, NaN,NaN,NaN, NaN, NaN
20050114,000318,866377,32.245195,-123.489740,27.1,14.130,32.926,39.826,549.01,0.0,0.859,13.804,13.778, NaN,24.558,   NaN,12.52,1021.68,85.86,12.82,25.5,27.0,4.2,4.4,8.5,10.0,4.1,4.2,NaN, NaN,13.5,329.3,346.7,1105660998,1105660998,1,0.5,000198,000198,340.7,32.245060,-123.489745,-0.30,NaN,NaN,14.133, NaN,NaN,NaN, NaN, NaN
20050114,000348,866407,32.245222,-123.489726,27.1,14.131,32.926,39.827,553.87,0.0,0.859,13.803,13.777, NaN,24.558,   NaN,12.51,1021.67,85.69,12.83,24.4,26.9,4.3,4.6,6.1,8.7,4.1,4.4,NaN, NaN,13.4,61.2,98.1,1105661028,1105661028,1,0.0,000228,000228,341.6,32.245087,-123.489730,-0.26,NaN,NaN,14.134, NaN,NaN,NaN, NaN, NaN
20050114,000418,866436,32.245217,-123.489706,27.1,14.133,32.926,39.829,555.24,0.0,0.859,13.803,13.778, NaN,24.557,   NaN,12.49,1021.68,85.66,12.81,24.3,27.1,4.6,4.9,3.2,6.1,4.5,4.8,NaN, NaN,14.0,140.9,128.5,1105661058,1105661058,1,0.2,000258,000258,340.1,32.245080,-123.489705,-0.38,NaN,NaN,14.136, NaN,NaN,NaN, NaN, NaN
20050114,000448,866466,32.245197,-123.489675,27.0,14.136,32.927,39.832,547.80,0.0,0.859,13.805,13.780, NaN,24.557,   NaN,12.52,1021.69,85.83,12.84,29.0,29.8,4.5,4.6,6.4,7.2,4.6,4.7,NaN, NaN,13.7,81.2,173.5,1105661088,1105661088,1,0.3,000287,000288,337.6,32.245053,-123.489670,-0.38,NaN,NaN,14.139, NaN,NaN,NaN, NaN, NaN
20050114,000519,866497,32.245153,-123.489641,27.0,14.138,32.927,39.833,553.50,0.0,0.859,13.809,13.780, NaN,24.557,   NaN,12.53,1021.69,85.78,12.85,31.5,33.1,4.3,4.2,8.3,9.6,4.5,4.5,NaN, NaN,13.6,84.5,85.0,1105661118,1105661118,1,0.8,000318,000318,337.2,32.245015,-123.489636,-0.27,NaN,NaN,14.141, NaN,NaN,NaN, NaN, NaN
20050114,000548,866527,32.245142,-123.489645,27.1,14.140,32.928,39.836,546.93,0.0,0.859,13.812,13.782, NaN,24.557,   NaN,12.54,1021.69,85.91,12.85,31.8,36.2,4.3,4.1,7.5,11.6,4.4,4.2,NaN, NaN,13.9,268.4,205.1,1105661148,1105661148,1,0.2,000347,000348,340.1,32.245003,-123.489636,-0.31,NaN,NaN,14.143, NaN,NaN,NaN, NaN, NaN
20050114,000618,866557,32.245180,-123.489636,27.3,14.142,32.928,39.838,543.21,0.0,0.859,13.812,13.782, NaN,24.557,   NaN,12.58,1021.68,85.96,12.89,29.5,34.3,4.6,4.5,9.3,13.9,4.6,4.5,NaN, NaN,14.1,268.4,336.3,1105661178,1105661178,1,0.3,000377,000378,341.9,32.245043,-123.489636,-0.31,NaN,NaN,14.145, NaN,NaN,NaN, NaN, NaN
20050114,000648,866586,32.245215,-123.489633,27.1,14.141,32.930,39.839,536.44,0.0,0.859,13.811,13.782, NaN,24.559,   NaN,12.50,1021.71,85.73,12.82,26.6,30.6,4.9,4.9,9.3,13.2,4.9,4.9,NaN, NaN,14.0,255.6,210.1,1105661208,1105661208,1,0.4,000408,000408,341.4,32.245080,-123.489631,-0.28,NaN,NaN,14.144, NaN,NaN,NaN, NaN, NaN
20050114,000718,866616,32.245230,-123.489610,27.0,14.138,32.929,39.836,531.39,0.0,0.859,13.812,13.783, NaN,24.558,   NaN,12.45,1021.70,85.73,12.77,24.5,25.9,4.5,4.7,4.3,5.6,4.4,4.6,NaN, NaN,13.7,106.7,262.0,1105661238,1105661238,1,0.3,000438,000438,340.6,32.245097,-123.489620,-0.29,NaN,NaN,14.141, NaN,NaN,NaN, NaN, NaN
20050114,000748,866646,32.245208,-123.489585,27.1,14.138,32.929,39.836,532.61,0.0,0.859,13.812,13.783, NaN,24.559,   NaN,12.48,1021.72,85.77,12.77,22.3,21.5,4.0,4.3,0.2,359.5,4.0,4.3,NaN, NaN,14.4,57.2,171.5,1105661268,1105661268,1,0.3,000467,000468,342.2,32.245073,-123.489585,-0.31,NaN,NaN,14.141, NaN,NaN,NaN, NaN, NaN
20050114,000818,866677,32.245170,-123.489548,27.1,14.136,32.930,39.835,552.69,0.0,0.878,13.227,13.783, NaN,24.559,   NaN,12.55,1021.73,85.93,12.83,24.0,22.2,3.5,3.9,2.2,1.0,3.5,3.9,NaN, NaN,13.5,253.2,174.1,1105661298,1105661298,1,0.5,000498,000498,344.2,32.245038,-123.489555,-0.31,NaN,NaN,14.139, NaN,NaN,NaN, NaN, NaN
20050114,000848,866707,32.245125,-123.489493,27.2,14.137,32.928,39.834,562.44,0.0,0.878,13.811,13.783, NaN,24.558,   NaN,12.61,1021.73,85.97,12.90,20.3,20.2,3.5,4.0,2.5,2.8,3.6,4.0,NaN, NaN,12.9,90.4,99.6,1105661329,1105661328,1,1.2,000528,000528,342.9,32.245000,-123.489511,-0.36,NaN,NaN,14.140, NaN,NaN,NaN, NaN, NaN
20050114,000918,866737,32.245072,-123.489475,27.1,14.135,32.930,39.834,544.90,0.0,0.859,13.810,13.783, NaN,24.560,   NaN,12.53,1021.73,85.54,12.83,16.3,18.8,3.8,4.1,358.6,1.2,3.9,4.2,NaN, NaN,13.5,260.6,185.7,1105661358,1105661358,1,0.5,000557,000558,340.9,32.244942,-123.489476,-0.30,NaN,NaN,14.138, NaN,NaN,NaN, NaN, NaN
20050114,000949,866768,32.245023,-123.489430,27.1,14.130,32.931,39.831,548.37,0.0,0.859,12.817,13.782, NaN,24.561,   NaN,12.49,1021.73,85.52,12.78,19.6,21.8,3.7,3.9,357.7,0.1,3.8,4.1,NaN, NaN,13.1,90.9,94.7,1105661389,1105661388,1,0.7,000588,000588,338.9,32.244895,-123.489426,-0.09,NaN,NaN,14.133, NaN,NaN,NaN, NaN, NaN
20050114,001018,866796,32.245015,-123.489425,27.2,14.129,32.930,39.829,562.85,0.0,0.878,13.563,13.783, NaN,24.561,   NaN,12.50,1021.74,85.53,12.79,22.8,25.2,3.5,3.7,358.6,1.0,3.6,3.8,NaN, NaN,12.2,88.6,113.1,1105661418,1105661418,1,0.2,000617,000618,337.2,32.244890,-123.489420,-0.34,NaN,NaN,14.132, NaN,NaN,NaN, NaN, NaN
20050114,001048,866826,32.245062,-123.489423,27.1,14.131,32.926,39.827,558.94,0.0,0.859,13.812,13.782, NaN,24.558,   NaN,12.54,1021.71,85.61,12.81,24.7,25.8,3.5,3.7,359.8,1.0,3.4,3.6,NaN, NaN,12.7,37.1,312.8,1105661448,1105661448,1,0.6,000648,000648,339.4,32.244940,-123.489430,-0.25,NaN,NaN,14.134, NaN,NaN,NaN, NaN, NaN
20050114,001118,866857,32.245133,-123.489425,27.1,14.132,32.927,39.828,527.53,0.0,0.859,13.810,13.781, NaN,24.558,   NaN,12.60,1021.76,85.80,12.86,23.3,24.4,3.6,3.9,2.8,3.8,3.5,3.8,NaN, NaN,12.6,351.7,334.7,1105661478,1105661478,1,0.0,000678,000678,342.9,32.245002,-123.489436,-0.15,NaN,NaN,14.135, NaN,NaN,NaN, NaN, NaN
20050114,001148,866887,32.245170,-123.489418,26.9,14.130,32.929,39.829,546.56,0.0,0.859,13.808,13.779, NaN,24.560,   NaN,12.58,1021.73,85.53,12.87,18.6,21.2,4.1,4.3,2.8,5.4,3.8,4.1,NaN, NaN,13.1,351.7,284.5,1105661508,1105661508,1,0.1,000707,000708,347.1,32.245040,-123.489436,-0.28,NaN,NaN,14.133, NaN,NaN,NaN, NaN, NaN
20050114,001219,866918,32.245200,-123.489383,27.0,14.127,32.931,39.828,553.55,0.0,0.859,13.803,13.779, NaN,24.562,   NaN,12.51,1021.73,85.43,12.81,15.3,17.9,4.1,4.4,359.9,2.8,3.9,4.2,NaN, NaN,12.5,94.5,315.2,1105661539,1105661538,1,0.2,000738,000738,348.4,32.245067,-123.489410,-0.25,NaN,NaN,14.130, NaN,NaN,NaN, NaN, NaN
20050114,001248,866946,32.245198,-123.489350,27.1,14.127,32.928,39.825,552.76,0.0,0.859,13.803,13.776, NaN,24.560,   NaN,12.48,1021.71,85.44,12.79,15.2,16.7,3.9,4.2,358.1,0.1,3.8,4.1,NaN, NaN,14.1,86.0,56.8,1105661568,1105661568,1,0.4,000767,000768,347.7,32.245077,-123.489380,-0.33,NaN,NaN,14.130, NaN,NaN,NaN, NaN, NaN
20050114,001319,866978,32.245203,-123.489346,27.1,14.131,32.925,39.826,546.14,0.0,0.878,13.799,13.773, NaN,24.557,   NaN,12.51,1021.73,85.51,12.78,14.9,16.9,3.8,4.1,357.4,359.8,3.7,4.0,NaN, NaN,12.9,242.9,219.2,1105661599,1105661598,1,0.4,000798,000798,345.2,32.245070,-123.489346,-0.31,NaN,NaN,14.134, NaN,NaN,NaN, NaN, NaN
20050114,001348,867006,32.245185,-123.489298,27.1,14.133,32.925,39.828,539.70,0.0,0.859,12.844,13.775, NaN,24.557,   NaN,12.56,1021.71,85.63,12.84,17.4,20.1,3.6,3.9,359.8,2.8,3.6,3.8,NaN, NaN,13.8,77.9,160.1,1105661628,1105661628,1,0.4,000828,000828,345.7,32.245055,-123.489305,-0.18,NaN,NaN,14.136, NaN,NaN,NaN, NaN, NaN
20050114,001418,867037,32.245158,-123.489251,26.9,14.136,32.924,39.828,545.51,0.0,0.859,13.803,13.777, NaN,24.555,   NaN,12.56,1021.70,85.56,12.85,18.5,21.3,3.6,3.9,359.9,3.4,3.6,3.9,NaN, NaN,12.1,101.3,95.8,1105661658,1105661658,1,1.3,000858,000858,345.1,32.245025,-123.489258,-0.17,NaN,NaN,14.139, NaN,NaN,NaN, NaN, NaN
20050114,001448,867067,32.245110,-123.489198,27.0,14.136,32.928,39.833,525.35,0.0,0.878,12.842,13.776, NaN,24.558,   NaN,12.57,1021.71,85.63,12.87,22.5,23.9,3.7,3.9,4.1,5.9,3.7,3.9,NaN, NaN,16.0,69.8,95.5,1105661688,1105661688,1,1.0,000888,000888,340.2,32.244987,-123.489208,-0.23,NaN,NaN,14.139, NaN,NaN,NaN, NaN, NaN
20050114,001518,867096,32.245070,-123.489193,27.0,14.136,32.927,39.832,517.67,0.0,0.859,13.801,13.778, NaN,24.558,   NaN,12.58,1021.71,85.68,12.87,33.0,37.4,3.7,3.7,10.9,15.3,3.8,3.8,NaN, NaN,15.2,229.8,172.2,1105661718,1105661718,1,0.6,000917,000918,333.2,32.244945,-123.489161,-0.30,NaN,NaN,14.139, NaN,NaN,NaN, NaN, NaN
20050114,001548,867126,32.245055,-123.489175,27.1,14.136,32.928,39.833,445.29,0.0,0.859,13.804,13.779, NaN,24.558,   NaN,12.57,1021.70,85.64,12.87,44.5,51.7,3.7,3.6,17.6,24.6,3.9,3.7,NaN, NaN,14.2,261.9,251.5,1105661748,1105661748,1,0.3,000947,000948,330.1,32.244928,-123.489138,-0.32,NaN,NaN,14.139, NaN,NaN,NaN, NaN, NaN
20050114,001618,867156,32.245070,-123.489205,27.1,14.136,32.928,39.833,439.29,0.0,0.878,13.393,13.779, NaN,24.558,   NaN,12.55,1021.73,85.72,12.85,48.6,56.7,3.6,3.4,22.8,30.7,3.8,3.5,NaN, NaN,11.3,255.0,273.9,1105661778,1105661778,1,0.9,000978,000978,334.9,32.244947,-123.489175,-0.32,NaN,NaN,14.139, NaN,NaN,NaN, NaN, NaN
20050114,001648,867187,32.245112,-123.489230,27.1,14.134,32.928,39.831,465.92,0.0,0.859,13.803,13.779, NaN,24.558,   NaN,12.57,1021.72,85.93,12.89,46.1,53.6,3.6,3.4,23.7,31.5,3.6,3.4,NaN, NaN,11.1,5.6,14.9,1105661808,1105661808,1,0.3,001007,001008,338.9,32.244978,-123.489201,-0.35,NaN,NaN,14.137, NaN,NaN,NaN, NaN, NaN
20050114,001718,867217,32.245132,-123.489233,27.2,14.133,32.925,39.827,452.93,0.0,0.878,13.803,13.778, NaN,24.556,   NaN,12.54,1021.72,85.77,12.86,43.4,51.1,3.9,4.0,22.7,30.9,3.8,3.8,NaN, NaN,10.9,228.4,71.5,1105661839,1105661838,1,0.0,001038,001038,342.1,32.244995,-123.489218,-0.45,NaN,NaN,14.136, NaN,NaN,NaN, NaN, NaN
20050114,001748,867247,32.245125,-123.489225,27.1,14.133,32.925,39.827,438.43,0.0,0.859,13.803,13.777, NaN,24.557,   NaN,12.48,1021.75,85.67,12.81,40.2,49.7,4.2,4.3,20.4,30.1,4.2,4.2,NaN, NaN,11.3,97.8,67.9,1105661868,1105661868,1,0.3,001068,001068,343.2,32.244997,-123.489216,-0.39,NaN,NaN,14.136, NaN,NaN,NaN, NaN, NaN
20050114,001818,867276,32.245110,-123.489208,27.0,14.132,32.928,39.829,438.33,0.0,0.859,13.804,13.778, NaN,24.559,   NaN,12.48,1021.73,85.75,12.80,36.5,44.8,4.3,4.2,17.0,25.4,4.3,4.1,NaN, NaN,11.6,284.9,120.5,1105661898,1105661898,1,0.6,001097,001098,343.9,32.244975,-123.489195,-0.44,NaN,NaN,14.135, NaN,NaN,NaN, NaN, NaN
20050114,001849,867308,32.245062,-123.489183,27.1,14.133,32.927,39.830,436.00,0.0,0.859,13.803,13.778, NaN,24.558,   NaN,12.49,1021.79,85.67,12.81,34.6,40.9,4.3,4.1,13.7,19.9,4.3,4.1,NaN, NaN,12.0,109.2,133.5,1105661929,1105661928,1,0.3,001128,001128,338.7,32.244932,-123.489166,-0.39,NaN,NaN,14.136, NaN,NaN,NaN, NaN, NaN
20050114,001918,867336,32.245008,-123.489170,27.1,14.133,32.927,39.830,440.80,0.0,0.878,13.803,13.775, NaN,24.558,   NaN,12.45,1021.78,85.44,12.76,36.0,40.4,4.1,4.0,12.6,16.8,4.2,4.1,NaN, NaN,11.2,257.2,172.8,1105661958,1105661958,1,0.4,001157,001158,336.0,32.244873,-123.489133,-0.41,NaN,NaN,14.136, NaN,NaN,NaN, NaN, NaN
20050114,001949,867367,32.244998,-123.489145,27.1,14.132,32.929,39.830,431.61,0.0,0.859,13.802,13.774, NaN,24.559,   NaN,12.45,1021.80,85.47,12.77,37.2,43.0,3.9,3.8,11.7,17.4,4.0,3.8,NaN, NaN,11.7,278.5,276.2,1105661989,1105661989,1,0.7,001188,001189,339.7,32.244863,-123.489140,-0.31,NaN,NaN,14.135, NaN,NaN,NaN, NaN, NaN
20050114,002018,867397,32.245020,-123.489150,27.2,14.129,32.929,39.828,419.37,0.0,0.878,13.801,13.770, NaN,24.560,   NaN,12.49,1021.81,85.56,12.80,32.6,38.4,4.2,4.2,10.5,16.3,4.1,4.1,NaN, NaN,11.6,17.3,2.2,1105662018,1105662018,1,0.6,001218,001218,341.1,32.244893,-123.489136,-0.29,NaN,NaN,14.132, NaN,NaN,NaN, NaN, NaN
20050114,002049,867428,32.245047,-123.489148,27.2,14.127,32.928,39.825,404.96,0.0,0.878,13.799,13.770, NaN,24.560,   NaN,12.52,1021.80,85.55,12.83,25.0,28.0,4.4,4.7,6.9,9.9,4.3,4.5,NaN, NaN,11.9,17.3,205.3,1105662049,1105662049,1,0.0,001248,001249,342.9,32.244920,-123.489136,-0.34,NaN,NaN,14.130, NaN,NaN,NaN, NaN, NaN
20050114,002118,867456,32.245055,-123.489113,27.1,14.127,32.929,39.826,396.61,0.0,0.859,13.798,13.769, NaN,24.561,   NaN,12.53,1021.82,85.61,12.84,24.0,26.1,4.3,4.7,4.6,6.8,4.2,4.5,NaN, NaN,11.7,79.8,64.9,1105662078,1105662078,1,0.2,001278,001278,344.7,32.244928,-123.489115,-0.32,NaN,NaN,14.130, NaN,NaN,NaN, NaN, NaN
20050114,002149,867488,32.245042,-123.489086,27.0,14.128,32.926,39.823,392.43,0.0,0.859,13.797,13.769, NaN,24.558,   NaN,12.60,1021.83,85.83,12.86,23.4,24.3,4.1,4.4,5.2,6.4,4.0,4.4,NaN, NaN,11.8,216.8,118.7,1105662109,1105662109,1,0.3,001309,001309,347.3,32.244918,-123.489093,-0.16,NaN,NaN,14.131, NaN,NaN,NaN, NaN, NaN
20050114,002219,867517,32.245013,-123.489028,27.1,14.133,32.925,39.827,387.27,0.0,0.859,13.794,13.769, NaN,24.557,   NaN,12.52,1021.84,85.44,12.83,17.7,19.1,3.7,4.1,3.2,4.7,3.8,4.2,NaN, NaN,11.7,72.5,124.4,1105662139,1105662139,1,0.6,001339,001339,349.6,32.244885,-123.489048,-0.24,NaN,NaN,14.136, NaN,NaN,NaN, NaN, NaN
20050114,002249,867547,32.244977,-123.489000,27.0,14.136,32.926,39.831,382.32,0.0,0.859,13.737,13.770, NaN,24.557,   NaN,12.52,1021.83,85.66,12.80,12.7,13.7,3.7,4.1,359.6,0.5,3.9,4.2,NaN, NaN,12.2,92.6,115.0,1105662169,1105662169,1,0.3,001369,001369,348.6,32.244848,-123.489005,-0.36,NaN,NaN,14.139, NaN,NaN,NaN, NaN, NaN
20050114,002319,867577,32.244943,-123.488940,27.2,14.139,32.925,39.833,378.44,0.0,0.878,13.799,13.770, NaN,24.555,   NaN,12.56,1021.82,85.81,12.86,17.7,18.0,3.9,4.2,2.7,3.2,4.0,4.3,NaN, NaN,11.5,104.0,93.0,1105662199,1105662199,1,0.8,001399,001399,343.9,32.244812,-123.488936,-0.26,NaN,NaN,14.142, NaN,NaN,NaN, NaN, NaN
20050114,002349,867608,32.244905,-123.488903,27.1,14.141,32.926,39.835,372.13,0.0,0.859,13.801,13.770, NaN,24.556,   NaN,12.56,1021.83,85.70,12.86,25.0,27.3,4.3,4.5,5.4,7.8,4.4,4.5,NaN, NaN,11.6,107.5,108.8,1105662229,1105662229,1,0.6,001429,001429,336.2,32.244777,-123.488878,-0.19,NaN,NaN,14.144, NaN,NaN,NaN, NaN, NaN
20050114,002419,867638,32.244845,-123.488851,27.0,14.141,32.927,39.837,360.95,0.0,0.878,13.802,13.774, NaN,24.556,   NaN,12.48,1021.81,85.52,12.81,31.3,34.7,4.4,4.3,4.1,7.3,4.5,4.3,NaN, NaN,11.9,89.8,120.8,1105662259,1105662259,1,1.0,001459,001459,330.4,32.244722,-123.488808,-0.44,NaN,NaN,14.144, NaN,NaN,NaN, NaN, NaN
20050114,002449,867667,32.244782,-123.488816,27.0,14.142,32.928,39.838,355.38,0.0,0.859,13.043,13.777, NaN,24.557,   NaN,12.46,1021.82,85.62,12.78,40.5,47.0,4.1,3.7,7.5,13.2,4.2,3.8,NaN, NaN,11.2,225.9,208.7,1105662289,1105662289,1,0.9,001489,001489,326.6,32.244662,-123.488761,-0.18,NaN,NaN,14.145, NaN,NaN,NaN, NaN, NaN
20050114,002519,867697,32.244725,-123.488778,27.0,14.143,32.928,39.839,355.25,0.0,0.859,12.745,13.777, NaN,24.557,   NaN,12.48,1021.81,85.70,12.79,45.1,54.3,3.7,3.3,8.8,16.9,3.9,3.4,NaN, NaN,11.3,56.9,156.0,1105662319,1105662319,1,0.3,001519,001519,326.6,32.244605,-123.488731,-0.25,NaN,NaN,14.146, NaN,NaN,NaN, NaN, NaN
20050114,002549,867727,32.244700,-123.488771,27.1,14.143,32.926,39.838,343.87,0.0,0.859,13.803,13.779, NaN,24.555,   NaN,12.54,1021.84,85.87,12.82,39.3,46.3,3.6,3.6,6.7,13.2,3.6,3.6,NaN, NaN,10.8,226.7,101.5,1105662349,1105662349,1,0.0,001549,001549,337.2,32.244570,-123.488751,-0.30,NaN,NaN,14.146, NaN,NaN,NaN, NaN, NaN
20050114,002619,867757,32.244683,-123.488755,27.1,14.144,32.928,39.840,348.59,0.0,0.859,13.805,13.780, NaN,24.556,   NaN,12.60,1021.84,86.12,12.90,29.9,30.2,3.5,3.9,6.0,6.4,3.6,4.0,NaN, NaN,10.7,95.8,121.8,1105662379,1105662378,1,0.3,001578,001578,346.2,32.244555,-123.488753,-0.34,NaN,NaN,14.147, NaN,NaN,NaN, NaN, NaN
20050114,002649,867788,32.244660,-123.488715,27.0,14.144,32.933,39.846,349.95,0.0,0.859,13.807,13.780, NaN,24.561,   NaN,12.74,1021.85,86.58,13.02,23.5,21.7,3.6,3.9,5.4,3.7,3.6,3.9,NaN, NaN,10.3,95.0,255.8,1105662409,1105662409,1,0.5,001608,001609,350.6,32.244525,-123.488731,-0.29,NaN,NaN,14.147, NaN,NaN,NaN, NaN, NaN
20050114,002719,867818,32.244618,-123.488673,26.9,14.145,32.927,39.840,340.31,0.0,0.859,13.803,13.780, NaN,24.555,   NaN,12.69,1021.88,86.23,13.01,18.5,19.6,3.8,3.9,4.5,5.6,3.9,4.0,NaN, NaN,10.3,196.8,134.1,1105662439,1105662439,1,0.4,001639,001639,349.6,32.244483,-123.488681,-0.29,NaN,NaN,14.148, NaN,NaN,NaN, NaN, NaN
20050114,002749,867847,32.244582,-123.488628,27.2,14.149,32.925,39.841,335.43,0.0,0.878,13.810,13.783, NaN,24.553,   NaN,12.59,1021.87,86.18,12.91,9.4,12.0,3.9,4.2,356.1,358.8,4.0,4.3,NaN, NaN,11.5,92.9,109.1,1105662469,1105662469,1,0.9,001669,001669,347.7,32.244450,-123.488630,-0.20,NaN,NaN,14.152, NaN,NaN,NaN, NaN, NaN
20050114,002819,867877,32.244550,-123.488570,27.1,14.148,32.928,39.844,327.40,0.0,0.859,13.813,13.783, NaN,24.556,   NaN,12.51,1021.89,86.27,12.83,4.1,7.5,4.0,4.3,347.7,351.4,4.1,4.5,NaN, NaN,11.0,204.4,148.2,1105662499,1105662498,1,0.4,001698,001698,345.2,32.244418,-123.488568,-0.31,NaN,NaN,14.151, NaN,NaN,NaN, NaN, NaN
20050114,002849,867907,32.244515,-123.488515,27.1,14.150,32.927,39.845,314.10,0.0,0.859,13.812,13.783, NaN,24.555,   NaN,12.51,1021.86,86.39,12.81,8.1,9.2,3.9,4.2,348.7,349.9,4.0,4.3,NaN, NaN,10.8,86.3,104.6,1105662529,1105662529,1,0.9,001728,001729,342.2,32.244378,-123.488495,-0.19,NaN,NaN,14.153, NaN,NaN,NaN, NaN, NaN
20050114,002919,867938,32.244460,-123.488456,27.2,14.151,32.927,39.846,309.41,0.0,0.859,13.814,13.783, NaN,24.554,   NaN,12.61,1021.90,86.81,12.86,16.0,14.8,3.6,3.9,352.0,351.3,3.7,4.0,NaN, NaN,11.3,90.3,159.1,1105662559,1105662559,1,0.4,001759,001759,340.2,32.244333,-123.488435,-0.26,NaN,NaN,14.154, NaN,NaN,NaN, NaN, NaN
20050114,002949,867968,32.244407,-123.488396,27.0,14.151,32.926,39.844,302.83,0.0,0.859,13.814,13.784, NaN,24.553,   NaN,12.62,1021.89,86.58,12.94,18.0,17.6,3.9,4.2,353.6,353.7,4.0,4.3,NaN, NaN,10.9,216.0,179.4,1105662589,1105662589,1,0.6,001789,001789,339.1,32.244280,-123.488376,-0.19,NaN,NaN,14.154, NaN,NaN,NaN, NaN, NaN
20050114,003019,867998,32.244352,-123.488345,27.1,14.153,32.926,39.846,293.98,0.0,0.859,13.813,13.785, NaN,24.553,   NaN,12.55,1021.89,86.55,12.85,17.0,19.4,4.2,4.5,352.8,355.3,4.3,4.6,NaN, NaN,10.6,107.1,116.7,1105662619,1105662618,1,0.7,001818,001818,335.2,32.244225,-123.488306,-0.29,NaN,NaN,14.156, NaN,NaN,NaN, NaN, NaN
20050114,003049,868027,32.244285,-123.488300,27.1,14.151,32.927,39.846,285.11,0.0,0.859,13.815,13.785, NaN,24.554,   NaN,12.56,1021.89,86.69,12.83,21.8,24.5,4.0,4.2,353.7,356.3,4.2,4.4,NaN, NaN,10.2,209.1,199.9,1105662649,1105662649,1,0.5,001848,001849,332.6,32.244160,-123.488258,-0.39,NaN,NaN,14.154, NaN,NaN,NaN, NaN, NaN
20050114,003119,868057,32.244225,-123.488250,27.3,14.151,32.929,39.847,280.05,0.0,0.859,13.816,13.786, NaN,24.556,   NaN,12.60,1021.91,86.74,12.87,25.1,26.8,4.0,4.1,354.2,355.7,4.3,4.3,NaN, NaN,10.8,97.2,106.5,1105662679,1105662679,1,0.6,001879,001879,333.1,32.244102,-123.488216,-0.37,NaN,NaN,14.154, NaN,NaN,NaN, NaN, NaN
20050114,003149,868087,32.244207,-123.488238,27.2,14.151,32.929,39.848,274.29,0.0,0.878,13.816,13.787, NaN,24.556,   NaN,12.56,1021.89,86.65,12.87,24.3,24.3,4.1,4.1,357.5,357.5,4.2,4.3,NaN, NaN,10.8,62.4,66.3,1105662709,1105662709,1,0.6,001909,001909,338.9,32.244082,-123.488220,-0.29,NaN,NaN,14.154, NaN,NaN,NaN, NaN, NaN
20050114,003219,868118,32.244240,-123.488238,27.0,14.151,32.928,39.847,269.92,0.0,0.859,13.816,13.786, NaN,24.555,   NaN,12.60,1021.92,86.79,12.87,15.9,15.2,4.0,4.4,356.3,355.8,4.0,4.4,NaN, NaN,11.4,82.3,49.1,1105662739,1105662739,1,0.7,001939,001939,345.6,32.244115,-123.488226,-0.26,NaN,NaN,14.154, NaN,NaN,NaN, NaN, NaN
20050114,003249,868148,32.244258,-123.488198,27.2,14.151,32.928,39.847,262.12,0.0,0.859,13.816,13.785, NaN,24.555,   NaN,12.60,1021.90,86.76,12.90,6.5,9.8,4.1,4.6,352.3,355.1,4.1,4.5,NaN, NaN,12.0,303.5,113.5,1105662769,1105662768,1,0.2,001968,001968,350.2,32.244135,-123.488201,-0.25,NaN,NaN,14.154, NaN,NaN,NaN, NaN, NaN
20050114,003319,868177,32.244272,-123.488138,27.1,14.151,32.927,39.845,254.67,0.0,0.859,13.816,13.787, NaN,24.554,   NaN,12.54,1021.95,86.57,12.83,7.8,8.9,4.4,4.6,355.5,357.2,4.3,4.6,NaN, NaN,10.5,38.6,70.6,1105662799,1105662799,1,0.0,001999,001999,353.1,32.244142,-123.488153,-0.13,NaN,NaN,14.154, NaN,NaN,NaN, NaN, NaN
20050114,003349,868207,32.244248,-123.488073,27.1,14.152,32.930,39.850,248.43,0.0,0.878,11.923,13.787, NaN,24.557,   NaN,12.47,1021.96,86.48,12.78,6.9,6.1,4.2,4.4,356.0,355.7,4.2,4.5,NaN, NaN,11.4,80.5,106.4,1105662829,1105662829,1,1.1,002028,002029,355.6,32.244117,-123.488088,-0.13,NaN,NaN,14.155, NaN,NaN,NaN, NaN, NaN
20050114,003420,868239,32.244207,-123.488013,27.1,14.157,32.925,39.848,245.11,0.0,0.859,13.815,13.788, NaN,24.551,   NaN,12.49,1021.96,86.54,12.76,359.9,2.3,4.0,4.2,352.5,354.8,4.2,4.4,NaN, NaN,11.2,138.6,130.8,1105662859,1105662859,1,0.8,002059,002059,357.1,32.244078,-123.488040,-0.22,NaN,NaN,14.160, NaN,NaN,NaN, NaN, NaN
20050114,003449,868268,32.244162,-123.487946,27.1,14.157,32.927,39.850,241.98,0.0,0.859,13.819,13.789, NaN,24.553,   NaN,12.47,1021.97,86.34,12.76,355.5,0.6,4.2,4.3,350.2,355.0,4.4,4.4,NaN, NaN,12.2,100.0,130.7,1105662889,1105662889,1,0.8,002089,002089,355.6,32.244035,-123.487970,-0.17,NaN,NaN,14.160, NaN,NaN,NaN, NaN, NaN
20050114,003520,868298,32.244120,-123.487890,27.1,14.157,32.927,39.852,238.31,0.0,0.878,12.131,13.790, NaN,24.553,   NaN,12.46,1021.99,86.35,12.72,2.2,5.5,4.0,4.1,354.8,357.9,4.2,4.3,NaN, NaN,11.8,93.6,104.0,1105662919,1105662919,1,0.9,002119,002119,350.6,32.243987,-123.487883,-0.20,NaN,NaN,14.160, NaN,NaN,NaN, NaN, NaN
20050114,003550,868328,32.244077,-123.487815,27.0,14.156,32.928,39.852,234.31,0.0,0.859,12.669,13.792, NaN,24.554,   NaN,12.53,1022.00,86.57,12.80,10.5,10.3,3.6,4.1,357.2,357.5,3.8,4.2,NaN, NaN,11.9,254.3,216.7,1105662950,1105662950,1,0.4,002149,002150,344.7,32.243945,-123.487796,-0.14,NaN,NaN,14.159, NaN,NaN,NaN, NaN, NaN
20050114,003619,868357,32.244032,-123.487740,27.1,14.157,32.928,39.853,230.85,0.0,0.859,13.182,13.793, NaN,24.554,   NaN,12.51,1022.00,86.38,12.81,11.9,12.0,4.1,4.5,353.6,353.9,4.3,4.7,NaN, NaN,12.1,90.3,127.7,1105662979,1105662979,1,0.7,002179,002179,337.9,32.243903,-123.487700,-0.21,NaN,NaN,14.160, NaN,NaN,NaN, NaN, NaN
20050114,003650,868389,32.243972,-123.487678,27.0,14.157,32.928,39.852,229.68,0.0,0.859,13.820,13.794, NaN,24.554,   NaN,12.52,1022.03,86.50,12.79,13.8,13.0,4.2,4.5,347.9,347.4,4.3,4.7,NaN, NaN,12.1,99.2,99.4,1105663010,1105663010,1,0.8,002210,002210,330.6,32.243852,-123.487620,-0.30,NaN,NaN,14.160, NaN,NaN,NaN, NaN, NaN